Regional Weather Roundup
Issued by NWS

Home | Current Version | Previous Version | Graphics & Text | Print | Product List | Glossary On
Versions: 1 2 3 4 5 6 7 8 9 10 11 12 13 14 15 16 17 18 19 20 21 22 23 24 25 26 27 28 29 30 31 32 33 34 35 36 37 38 39 40 41 42 43 44 45 46 47 48 49 50
000
ASUS43 KLMK 271510
RWRKY
KENTUCKY REGIONAL WEATHER ROUNDUP
NATIONAL WEATHER SERVICE LOUISVILLE KY
1100 AM EDT MON MAR 27 2017

NOTE "FAIR" INDICATES FEW OR NO CLOUDS BELOW 12,000 FEET
WITH NO SIGNIFICANT WEATHER AND/OR OBSTRUCTIONS TO VISIBILITY.

KYZ001>023-026-027-061>063-070>075-271600-
WESTERN AND SOUTH CENTRAL KENTUCKY

CITY           SKY/WX    TMP DP  RH WIND       PRES   REMARKS
PADUCAH        CLOUDY    64  56  75 S5        29.88S
HENDERSON      PTSUNNY   55  52  88 E7        29.88F
OWENSBORO      CLOUDY    56  54  93 E7        29.93F
HOPKINSVILLE   CLOUDY    64  62  93 S8        29.93F
BOWLING GREEN  CLOUDY    60  57  89 E3        29.97F
GLASGOW        LGT RAIN  59  59 100 CALM      29.99S
$$

KYZ024-025-028>034-038-045-046-053-271600-
NORTH CENTRAL KENTUCKY

CITY           SKY/WX    TMP DP  RH WIND       PRES   REMARKS
LOUISVILLE/SDF CLOUDY    59  50  72 SW5       30.00R
LOUISVILLE/LOU CLOUDY    61  50  67 CALM      30.00R
FORT KNOX      LGT RAIN  55  55  97 CALM      29.98F FOG
$$

KYZ035>037-039>044-047>052-055>060-089>105-271600-
NORTHEAST KENTUCKY

CITY           SKY/WX    TMP DP  RH WIND       PRES   REMARKS
LEXINGTON      CLOUDY    64  54  69 S6        30.00S
COVINGTON      PTSUNNY   60  50  69 VRB3      30.01R
FRANKFORT      CLOUDY    62  52  69 SE3       29.98S
$$

KYZ054-064>069-076>088-106>120-271600-
SOUTHEAST KENTUCKY

CITY           SKY/WX    TMP DP  RH WIND       PRES   REMARKS
JACKSON        CLOUDY    59  55  87 CALM      30.03R
LONDON         MOSUNNY   69  57  65 SW10      30.01S
SOMERSET       PTSUNNY   66  55  68 S7        30.01S
MIDDLESBORO    CLOUDY    67  56  68 S7G16     30.06S
MONTICELLO     CLOUDY    69  61  75 SW17G24   30.02R
$$




USA.gov is the U.S. government's official web portal to all federal, state and local government web resources and services.